FENGYUN 1C DEB, 32162

Orbit data source: Space-Track

FENGYUN 1C DEB, 32162 is space debris in SSO originally from a launch on Mon, 10 May 1999 UTC launched from the Taiyaun Space Center, China (TSC). Fengyun 1C debris stems from the Chinese weather satellite Fengyun-1C, which was intentionally destroyed by a Chinese anti-satellite missile in 2007. This event dramatically increased the amount of space debris, with thousands of trackable fragments posing hazards to satellites and human spaceflight. The Fengyun 1C debris cloud has become a focal point in discussions about space sustainability and the need for international regulations to prevent the creation of new debris.

Loading next visibility...
Identifier
32162, 1999-025CTG
Orbit
SSO
Country
Flag of CNCN / PRC
Related business
Manufacturer
Unknown
Mission
Spacecraft
Bus & Motor
Unknown
Mass
Unknown
Launch date (UTC)
1999-05-10 (27 years ago)
Launch vehicle
Unknown
Launch site
Taiyaun Space Center, China (TSC)
Object type
Payload
Rocket body
Debris
Shape & HBR
Unknown shape, 0.1 m
Radar Cross Section
Small (<0.1 m²)

Expand to show TLE details & history
Last TLE update: 4 days ago

TLE from 4 days ago
0 FENGYUN 1C DEB
1 32162U 99025CTG 26252.46782622  .00004540  00000-0  84063-3 0  9990
2 32162  99.4383 341.9308 0045546  73.3594 287.2598 14.65266295988793
Epoch: 2026-09-09T11:13Z
TLE epoch observation values (Epoch: 2026-09-09T11:13:40.185Z)
Latitude
-0.00007°
Longitude
-175.00609°
Altitude
669.771 km
Speed
7.527 km/s
True Right ascension
22h 47m 43s
True Declination
0° 00' 00"
Sunlit
Object was in full shadow at epoch
Visualization orbit readout
Latitude
Unknown
Longitude
Unknown
Altitude
Unknown
Speed
Unknown
Apparent Right ascension
Unknown
Apparent Declination
Unknown
Sunlit
N/A
Visualization observer readout
Local Sidereal Time
15:17:06
Azimuth
Unknown
Elevation
Unknown
Doppler factor
Unknown
Orbital elements
Apogee altitude
705.473 km
Perigee altitude
641.239 km
Semi-major axis
7,051.493 km
Eccentricity
0.00455
Inclination
99.4383°
RAAN
341.9308°
Arg. of periapsis
73.3594°
True anomaly
286.76055°
Mean anomaly
287.2598°
Eccentric anomaly
287.01026°
Mean motion
3.6654 °/min
Orbital period
98.22 mins
BSTAR
0.00084063
Loading maneuver chart data...
Computing Atmospheric mass density...
Loading historical data...
Loading historical data...
Loading historical data...
Loading historical data...
Loading historical data...
Loading historical data...
Loading historical data...

Documentation

Showing up to 5 results
|